Simultaneous Nadir Overpasses (SNOs) Predictions

Prediction of SNOs between GOES-17 and METOP-B Satellite Orbit:

Table of predicted SNOs for the next 14.0 days since TLE Epoch: 9/12/2025
Index Date Time (GOES-17) GOES-17 Lat,Lon METOP-B Lat,Lon Distance(km) Time Diff (sec)
1 09/13/2025 03:04:13 -0.12, -89.47 -0.35, -90.40 105.85 80
2 09/14/2025 02:40:57 -0.10, -89.47 0.81, -85.43 461.21 80
3 09/15/2025 15:02:31 0.13, -89.53 0.21, -90.01 55.06 80
4 09/18/2025 03:00:57 -0.14, -89.48 -0.16, -89.65 19.79 80
5 09/20/2025 14:56:34 0.14, -89.55 0.08, -89.26 33.25 80
6 09/22/2025 03:18:17 -0.16, -89.51 -1.13, -93.88 497.61 80
7 09/23/2025 02:55:00 -0.15, -89.52 -0.02, -88.90 70.69 80
8 09/24/2025 15:16:34 0.17, -89.60 1.05, -93.48 443.13 80
9 09/25/2025 14:53:16 0.16, -89.61 -0.06, -88.50 125.21 80
